TIANWANG 1C (TW-1C)
1 40926U 15051B   18143.89707176  .00006390  00000-0  12091-3 0  9999
2 40926  97.1849 186.3564 0010159  17.0950 338.1828 15.48684704149545
TIANWANG 1B (TW-1B)
1 40927U 15051C   18143.89870370  .00006225  00000-0  12290-3 0  9995
2 40927  97.1934 186.2000 0010495  29.1144 326.5460 15.47462226149452
TIANWANG 1A (TW-1A)
1 40928U 15051D   18143.49594802 +.00002159 +00000-0 +58618-4 0  9992
2 40928 097.1869 177.9730 0013662 055.9508 050.7753 15.38597517148987
LAPAN A2
1 40931U 15052B   18142.99930850 +.00000673 +00000-0 +45649-5 0  9998
2 40931 005.9998 329.7369 0013917 010.3672 349.6911 14.76575968143276
LQSAT
1 40958U 15057A   18143.77928281  .00000031  00000-0  12545-4 0  9990
2 40958  97.9407 217.4557 0019405  57.5128 302.7949 14.73031658141257
CHUBUSAT 2
1 41338U 16012B   18143.29264744 +.00000278 +00000-0 +14942-4 0  9995
2 41338 031.0027 111.8110 0013930 187.0415 173.0026 14.99974958124099
CHUBUSAT 3
1 41339U 16012C   18143.30951199  .00000295  00000-0  16236-4 0  9992
2 41339  31.0100 110.3356 0013394 194.0650 165.9611 15.00163268124087
OUFTI-1
1 41458U 16025C   18143.76485756  .00001233  00000-0  68593-4 0  9995
2 41458  98.1379 205.3081 0169173 229.2754 129.3651 15.04586691113768
E-STAR-2
1 41459U 16025D   18143.16877485 +.00001393 +00000-0 +77185-4 0  9998
2 41459 098.1383 204.5295 0170262 231.9162 126.6611 15.04324203113660
AAUSAT 4
1 41460U 16025E   18143.17092753  .00002126  00000-0  11406-3 0  9996
2 41460  98.1312 204.9932 0161617 228.0406 130.6960 15.05722195113720
NUSAT 1
1 41557U 16033B   18143.67986414  .00001152  00000-0  44590-4 0  9992
2 41557  97.4364 227.9465 0012525 241.9155 118.0819 15.28209130110410
BEESAT 4
1 41619U 16040W   18143.61331236 +.00001234 +00000-0 +56970-4 0  9995
2 41619 097.4166 207.0983 0010445 323.4999 036.5525 15.22058705094350
PRATHAM
1 41783U 16059A   18143.58275983 +.00000063 +00000-0 +21603-4 0  9993
2 41783 098.1193 205.5379 0033899 170.6338 189.5504 14.62922023088365
ALSAT 1N
1 41789U 16059G   18143.69749287  .00000113  00000-0  30621-4 0  9990
2 41789  98.1194 206.8228 0028769 162.1693 198.0522 14.64153678 88436
NAYIF 1
1 42017U 17008BX  18143.61218790 +.00001434 +00000-0 +61473-4 0  9998
2 42017 097.4497 208.8142 0008182 104.1763 256.0384 15.24371375070320
LILACSAT-1
1 42725U 98067ME  18143.39536550  .00020290  00000-0  18201-3 0  9991
2 42725  51.6351 124.4412 0004655 115.4427 244.7052 15.68269272 56626
MAX VALIER SAT
1 42778U 17036P   18143.77781412  .00000965  00000-0  46224-4 0  9991
2 42778  97.4052 203.8942 0013661 148.9428 211.2618 15.21258131 50799
